Location: ??????-???
(48.4261°N, 37.7652°E)
Time: 04:46:37
(UTC+00:00)

COSMOS 2428 - Pass Details

Date: 07 June 2020
Orbit: 845 x 857 km, 70.9° (Epoch: 03 July)

Event Time Altitude Azimuth Distance (km) Brightness Sun altitude
Rises 00:24:59 0° 175° (S) 3,395 5.4 -8.5°
Reaches altitude 10° 00:27:39 10° 166° (SSE) 2,463 4.8 -8.2°
Maximum altitude 00:32:34 32° 105° (ESE) 1,429 4.2 -7.7°
Drops below altitude 10° 00:37:30 10° 45° (NE) 2,476 7.0 -7.1°
Sets 00:40:11 0° 35° (NE) 3,415 8.2 -6.8°
